When you browse on this site, cookies collect data to enhance your experience and personalize the content and advertising you see.
Visit our Privacy Policy to learn more. By continuing to use the site, you agree to this use of cookies and data.
EN

Hourly Weather La Paz

Today, 13 July, Monday

Time Temperature Precipitation Wind Pressure Humidity
00:00 +4°C° 0 mm 1 mps 471 mmHg 60%
01:00 +3°C° 0 mm 1 mps 470 mmHg 60%
02:00 +3°C° 0 mm 1 mps 470 mmHg 57%
03:00 +2°C° 0 mm 1 mps 470 mmHg 54%
04:00 +2°C° 0 mm 1 mps 469 mmHg 51%
05:00 +2°C° 0 mm 0 mps 471 mmHg 48%
06:00 +4°C° 0 mm 0 mps 472 mmHg 44%
07:00 +5°C° 0 mm 0 mps 474 mmHg 40%
08:00 +8°C° 0 mm 1 mps 475 mmHg 34%
09:00 +10°C° 0 mm 1 mps 476 mmHg 27%
10:00 +12°C° 0 mm 1 mps 477 mmHg 21%
11:00 +12°C° 0 mm 2 mps 477 mmHg 23%
12:00 +13°C° 0 mm 2 mps 477 mmHg 25%
13:00 +14°C° 0 mm 2 mps 477 mmHg 26%
14:00 +13°C° 0.1 mm 2 mps 477 mmHg 28%
15:00 +13°C° 0.1 mm 2 mps 476 mmHg 31%
16:00 +13°C° 0.1 mm 2 mps 476 mmHg 33%
17:00 +10°C° 0 mm 2 mps 475 mmHg 46%
18:00 +8°C° 0 mm 2 mps 474 mmHg 59%
19:00 +6°C° 0 mm 2 mps 473 mmHg 72%
20:00 +5°C° 0 mm 2 mps 473 mmHg 72%
21:00 +6°C° 0 mm 1 mps 473 mmHg 73%
22:00 +5°C° 0 mm 1 mps 473 mmHg 73%
23:00 +5°C° 0 mm 1 mps 473 mmHg 76%

Tomorrow, 14 July, Tuesday

Time Temperature Precipitation Wind Pressure Humidity
00:00 +4°C° 0 mm 1 mps 472 mmHg 78%
01:00 +4°C° 0 mm 1 mps 472 mmHg 81%
02:00 +3°C° 0 mm 1 mps 471 mmHg 84%
03:00 +3°C° 0 mm 1 mps 471 mmHg 86%
04:00 +1°C° 0 mm 0 mps 471 mmHg 89%
05:00 +3°C° 0 mm 1 mps 472 mmHg 85%
06:00 +4°C° 0 mm 1 mps 473 mmHg 82%
07:00 +5°C° 0 mm 1 mps 474 mmHg 79%
08:00 +7°C° 0 mm 1 mps 475 mmHg 70%
09:00 +8°C° 0 mm 1 mps 476 mmHg 61%
10:00 +10°C° 0 mm 1 mps 477 mmHg 52%
11:00 +11°C° 0.2 mm 1 mps 477 mmHg 51%
12:00 +10°C° 0.2 mm 2 mps 477 mmHg 50%
13:00 +12°C° 0.2 mm 2 mps 477 mmHg 49%
14:00 +12°C° 0.2 mm 2 mps 476 mmHg 49%
15:00 +11°C° 0.2 mm 3 mps 476 mmHg 50%
16:00 +10°C° 0.2 mm 3 mps 475 mmHg 51%
17:00 +9°C° 0 mm 3 mps 475 mmHg 61%
18:00 +7°C° 0 mm 3 mps 474 mmHg 71%
19:00 +5°C° 0 mm 3 mps 474 mmHg 81%
20:00 +5°C° 0 mm 2 mps 474 mmHg 83%
21:00 +6°C° 0 mm 1 mps 473 mmHg 85%
22:00 +5°C° 0 mm 1 mps 473 mmHg 87%
23:00 +5°C° 0 mm 1 mps 473 mmHg 88%

Day after tomorrow, 15 July, Wednesday

Time Temperature Precipitation Wind Pressure Humidity
00:00 +3°C° 0 mm 0 mps 473 mmHg 88%
01:00 +3°C° 0 mm 0 mps 472 mmHg 89%
02:00 +2°C° 0 mm 0 mps 472 mmHg 89%
03:00 +3°C° 0 mm 1 mps 471 mmHg 89%
04:00 +3°C° 0 mm 1 mps 471 mmHg 89%
05:00 +4°C° 0 mm 1 mps 472 mmHg 81%
06:00 +5°C° 0 mm 1 mps 473 mmHg 74%
07:00 +5°C° 0 mm 1 mps 474 mmHg 66%
08:00 +7°C° 0 mm 1 mps 475 mmHg 57%
09:00 +8°C° 0 mm 2 mps 476 mmHg 48%
10:00 +10°C° 0 mm 2 mps 478 mmHg 39%
11:00 +12°C° 0 mm 2 mps 477 mmHg 35%
12:00 +13°C° 0 mm 2 mps 477 mmHg 31%
13:00 +14°C° 0 mm 1 mps 477 mmHg 28%
14:00 +14°C° 0 mm 2 mps 477 mmHg 28%
15:00 +14°C° 0 mm 2 mps 477 mmHg 29%
16:00 +13°C° 0 mm 2 mps 476 mmHg 29%
17:00 +10°C° 0 mm 2 mps 475 mmHg 40%
18:00 +9°C° 0 mm 1 mps 474 mmHg 51%
19:00 +7°C° 0 mm 1 mps 473 mmHg 61%
20:00 +7°C° 0 mm 1 mps 473 mmHg 63%
21:00 +6°C° 0 mm 1 mps 473 mmHg 65%
22:00 +5°C° 0 mm 1 mps 473 mmHg 66%
23:00 +5°C° 0 mm 1 mps 473 mmHg 63%

16 July, Thursday

Time Temperature Precipitation Wind Pressure Humidity
00:00 +4°C° 0 mm 1 mps 472 mmHg 60%
01:00 +4°C° 0 mm 1 mps 472 mmHg 57%
02:00 +4°C° 0 mm 1 mps 471 mmHg 54%
03:00 +3°C° 0 mm 1 mps 471 mmHg 51%
04:00 +3°C° 0 mm 1 mps 471 mmHg 48%
05:00 +4°C° 0 mm 1 mps 472 mmHg 45%
06:00 +5°C° 0 mm 1 mps 473 mmHg 42%
07:00 +5°C° 0 mm 0 mps 474 mmHg 39%
08:00 +8°C° 0 mm 1 mps 476 mmHg 34%
09:00 +10°C° 0 mm 1 mps 477 mmHg 28%
10:00 +12°C° 0 mm 1 mps 478 mmHg 23%
11:00 +13°C° 0 mm 1 mps 478 mmHg 25%
12:00 +14°C° 0 mm 2 mps 478 mmHg 26%
13:00 +14°C° 0 mm 2 mps 478 mmHg 28%
14:00 +14°C° 0 mm 2 mps 477 mmHg 34%
15:00 +13°C° 0 mm 2 mps 477 mmHg 40%
16:00 +13°C° 0 mm 2 mps 476 mmHg 46%
17:00 +10°C° 0 mm 2 mps 475 mmHg 56%
18:00 +9°C° 0 mm 1 mps 474 mmHg 65%
19:00 +7°C° 0 mm 1 mps 473 mmHg 75%
20:00 +6°C° 0 mm 0 mps 473 mmHg 78%
21:00 +5°C° 0 mm 0 mps 473 mmHg 81%
22:00 +4°C° 0 mm 0 mps 472 mmHg 84%
23:00 +4°C° 0 mm 0 mps 472 mmHg 84%

17 July, Friday

Time Temperature Precipitation Wind Pressure Humidity
00:00 +3°C° 0 mm 0 mps 471 mmHg 84%
01:00 +3°C° 0 mm 0 mps 471 mmHg 84%
02:00 +2°C° 0 mm 0 mps 471 mmHg 81%
03:00 +2°C° 0 mm 0 mps 470 mmHg 78%
04:00 +1°C° 0 mm 0 mps 470 mmHg 75%
05:00 +3°C° 0 mm 0 mps 471 mmHg 70%
06:00 +4°C° 0 mm 0 mps 472 mmHg 66%
07:00 +5°C° 0 mm 0 mps 474 mmHg 62%
08:00 +7°C° 0 mm 0 mps 475 mmHg 54%
09:00 +10°C° 0 mm 1 mps 476 mmHg 46%
10:00 +12°C° 0 mm 1 mps 477 mmHg 38%
11:00 +12°C° 0 mm 1 mps 477 mmHg 37%
12:00 +13°C° 0 mm 2 mps 477 mmHg 36%
13:00 +14°C° 0 mm 2 mps 477 mmHg 35%
14:00 +14°C° 0 mm 2 mps 477 mmHg 39%
15:00 +13°C° 0 mm 2 mps 476 mmHg 43%
16:00 +13°C° 0 mm 2 mps 476 mmHg 47%
17:00 +10°C° 0 mm 2 mps 475 mmHg 56%
18:00 +9°C° 0 mm 1 mps 474 mmHg 65%
19:00 +7°C° 0 mm 0 mps 473 mmHg 74%
20:00 +6°C° 0 mm 0 mps 473 mmHg 77%
21:00 +5°C° 0 mm 0 mps 472 mmHg 79%
22:00 +4°C° 0 mm 0 mps 472 mmHg 82%
23:00 +4°C° 0 mm 0 mps 472 mmHg 81%

18 July, Saturday

Time Temperature Precipitation Wind Pressure Humidity
00:00 +4°C° 0 mm 0 mps 471 mmHg 81%
01:00 +3°C° 0 mm 0 mps 471 mmHg 80%
02:00 +3°C° 0 mm 0 mps 470 mmHg 80%
03:00 +2°C° 0 mm 0 mps 470 mmHg 80%
04:00 +2°C° 0 mm 0 mps 470 mmHg 80%
05:00 +3°C° 0 mm 0 mps 471 mmHg 75%
06:00 +5°C° 0 mm 0 mps 472 mmHg 70%
07:00 +6°C° 0 mm 0 mps 474 mmHg 64%
08:00 +8°C° 0 mm 0 mps 475 mmHg 55%
09:00 +11°C° 0 mm 1 mps 476 mmHg 46%
10:00 +12°C° 0 mm 1 mps 477 mmHg 37%
11:00 +13°C° 0 mm 2 mps 477 mmHg 37%
12:00 +14°C° 0 mm 2 mps 477 mmHg 38%
13:00 +15°C° 0 mm 2 mps 477 mmHg 38%
14:00 +13°C° 0 mm 3 mps 476 mmHg 44%
15:00 +12°C° 0 mm 3 mps 475 mmHg 49%
16:00 +12°C° 0 mm 3 mps 475 mmHg 54%
17:00 +10°C° 0.1 mm 2 mps 474 mmHg 62%
18:00 +8°C° 0.1 mm 2 mps 473 mmHg 70%
19:00 +8°C° 0.1 mm 1 mps 473 mmHg 78%
20:00 +7°C° 0 mm 1 mps 472 mmHg 80%
21:00 +7°C° 0 mm 1 mps 472 mmHg 82%
22:00 +6°C° 0 mm 1 mps 472 mmHg 84%
23:00 +6°C° 0 mm 1 mps 472 mmHg 82%
Show more